GLD166 SIBZ-SIFC

Flight info

Callsign GLD166
Flight time 1h 18m
Altitude 3500
Route 0718S03729W 0736S03648W 0757S03558W 0747S03511W 0747S03506W N0150A1500 REA
Aircraft C182/M-SDFGIRY/S

Departure

Time 2026-04-27 12:22
Airport Itaporanga Airport (SIBZ)

Arrival

Time 2026-04-27 13:40
Airport Coroa do Avião Airport (SIFC)
Time Latitude Longitude Altitude Speed Heading
2026-04-27 12:17 -7.31036 -38.11366 965 ft 0 kts 97°
2026-04-27 12:19 -7.31036 -38.11365 959 ft 1 kts 107°
2026-04-27 12:19 -7.31061 -38.11384 960 ft 0 kts 229°
2026-04-27 12:20 -7.31066 -38.11389 961 ft 6 kts 229°
2026-04-27 12:20 -7.31086 -38.11419 961 ft 2 kts 281°
2026-04-27 12:20 -7.31075 -38.11457 961 ft 18 kts 288°
2026-04-27 12:20 -7.31027 -38.11558 967 ft 31 kts 294°
2026-04-27 12:21 -7.30963 -38.11701 970 ft 12 kts 208°
2026-04-27 12:21 -7.31008 -38.11622 971 ft 29 kts 107°
2026-04-27 12:21 -7.31152 -38.11278 958 ft 76 kts 113°
2026-04-27 12:21 -7.31457 -38.10500 1162 ft 94 kts 111°
2026-04-27 12:22 -7.31457 -38.10048 1310 ft 105 kts 69°
2026-04-27 12:22 -7.30855 -38.09555 1560 ft 119 kts 37°
2026-04-27 12:22 -7.30411 -38.08875 1794 ft 127 kts 87°
2026-04-27 12:22 -7.30667 -38.07981 1915 ft 138 kts 110°
2026-04-27 12:23 -7.30775 -38.06999 2043 ft 145 kts 95°
2026-04-27 12:23 -7.30842 -38.05979 2190 ft 148 kts 93°
2026-04-27 12:23 -7.30927 -38.04934 2306 ft 150 kts 97°
2026-04-27 12:23 -7.31010 -38.03891 2439 ft 149 kts 96°
2026-04-27 12:24 -7.31071 -38.02812 2562 ft 158 kts 94°
2026-04-27 12:24 -7.31133 -38.01698 2684 ft 160 kts 95°
2026-04-27 12:24 -7.31199 -38.00576 2790 ft 158 kts 95°
2026-04-27 12:24 -7.31249 -37.99512 2917 ft 151 kts 94°
2026-04-27 12:25 -7.31293 -37.98464 3039 ft 148 kts 96°
2026-04-27 12:25 -7.31331 -37.97400 3182 ft 156 kts 93°
2026-04-27 12:25 -7.31380 -37.96294 3309 ft 160 kts 96°
2026-04-27 12:25 -7.31422 -37.95175 3421 ft 157 kts 94°
2026-04-27 12:26 -7.31461 -37.94092 3540 ft 153 kts 95°
2026-04-27 12:26 -7.31502 -37.93015 3647 ft 152 kts 95°
2026-04-27 12:26 -7.31541 -37.91971 3760 ft 145 kts 95°
2026-04-27 12:26 -7.31580 -37.90959 3881 ft 144 kts 95°
2026-04-27 12:27 -7.31616 -37.89973 4000 ft 139 kts 95°
2026-04-27 12:27 -7.31657 -37.88996 4117 ft 139 kts 95°
2026-04-27 12:27 -7.31695 -37.88037 4233 ft 139 kts 95°
2026-04-27 12:27 -7.31734 -37.87062 4356 ft 139 kts 95°
2026-04-27 12:28 -7.31775 -37.86090 4481 ft 139 kts 95°
2026-04-27 12:28 -7.31817 -37.85117 4609 ft 140 kts 95°
2026-04-27 12:28 -7.31863 -37.84105 4742 ft 148 kts 95°
2026-04-27 12:28 -7.31906 -37.83057 4863 ft 151 kts 95°
2026-04-27 12:29 -7.31956 -37.82005 4983 ft 149 kts 96°
2026-04-27 12:29 -7.32001 -37.80967 5095 ft 147 kts 94°
2026-04-27 12:29 -7.32043 -37.79943 5104 ft 150 kts 95°
2026-04-27 12:29 -7.32095 -37.78852 4840 ft 164 kts 95°
2026-04-27 12:30 -7.32150 -37.77677 4552 ft 171 kts 95°
2026-04-27 12:30 -7.32195 -37.76463 4266 ft 176 kts 95°
2026-04-27 12:30 -7.32244 -37.75218 3979 ft 178 kts 95°
2026-04-27 12:30 -7.32302 -37.73958 3679 ft 182 kts 95°
2026-04-27 12:31 -7.32341 -37.72726 3601 ft 169 kts 94°
2026-04-27 12:31 -7.32388 -37.71573 3602 ft 162 kts 95°
2026-04-27 12:31 -7.32430 -37.70440 3596 ft 162 kts 95°
2026-04-27 12:31 -7.32468 -37.69313 3553 ft 155 kts 95°
2026-04-27 12:32 -7.32491 -37.68291 3571 ft 143 kts 95°
2026-04-27 12:32 -7.32531 -37.67263 3558 ft 151 kts 95°
2026-04-27 12:32 -7.32578 -37.66165 3560 ft 159 kts 95°
2026-04-27 12:32 -7.32607 -37.65064 3576 ft 156 kts 94°
2026-04-27 12:33 -7.32657 -37.63959 3574 ft 160 kts 94°
2026-04-27 12:33 -7.32708 -37.62829 3596 ft 164 kts 95°
2026-04-27 12:33 -7.32745 -37.61689 3591 ft 162 kts 94°
2026-04-27 12:33 -7.32779 -37.60557 3596 ft 166 kts 95°
2026-04-27 12:34 -7.32812 -37.59396 3597 ft 165 kts 94°
2026-04-27 12:34 -7.32850 -37.58236 3580 ft 167 kts 93°
2026-04-27 12:34 -7.32910 -37.57112 3594 ft 158 kts 96°
2026-04-27 12:34 -7.32952 -37.55981 3594 ft 162 kts 95°
2026-04-27 12:35 -7.32994 -37.54851 3576 ft 158 kts 95°
2026-04-27 12:35 -7.33036 -37.53751 3585 ft 159 kts 95°
2026-04-27 12:35 -7.33064 -37.52649 3572 ft 156 kts 94°
2026-04-27 12:35 -7.33099 -37.51565 3591 ft 156 kts 93°
2026-04-27 12:36 -7.33144 -37.50452 3580 ft 160 kts 95°
2026-04-27 12:36 -7.33172 -37.49350 3587 ft 157 kts 94°
2026-04-27 12:36 -7.33218 -37.48256 3570 ft 154 kts 95°
2026-04-27 12:36 -7.33255 -37.47168 3586 ft 158 kts 94°
2026-04-27 12:37 -7.33287 -37.46054 3585 ft 160 kts 95°
2026-04-27 12:37 -7.33312 -37.44942 3582 ft 156 kts 94°
2026-04-27 12:37 -7.33337 -37.43850 3568 ft 156 kts 93°
2026-04-27 12:37 -7.33384 -37.42748 3594 ft 161 kts 95°
2026-04-27 12:38 -7.33742 -37.41684 3563 ft 160 kts 121°
2026-04-27 12:38 -7.34339 -37.40746 3564 ft 160 kts 124°
2026-04-27 12:38 -7.34952 -37.39815 3564 ft 159 kts 124°
2026-04-27 12:38 -7.35557 -37.38883 3574 ft 160 kts 124°
2026-04-27 12:39 -7.36155 -37.37941 3568 ft 159 kts 124°
2026-04-27 12:39 -7.36746 -37.37007 3569 ft 158 kts 124°
2026-04-27 12:39 -7.37341 -37.36076 3575 ft 157 kts 124°
2026-04-27 12:39 -7.37924 -37.35161 3588 ft 155 kts 124°
2026-04-27 12:40 -7.38512 -37.34238 3587 ft 157 kts 123°
2026-04-27 12:40 -7.39115 -37.33309 3582 ft 160 kts 124°
2026-04-27 12:40 -7.39726 -37.32379 3575 ft 159 kts 124°
2026-04-27 12:40 -7.40316 -37.31441 3585 ft 160 kts 124°
2026-04-27 12:41 -7.40920 -37.30490 3583 ft 162 kts 124°
2026-04-27 12:41 -7.41521 -37.29525 3584 ft 162 kts 124°
2026-04-27 12:41 -7.42118 -37.28581 3564 ft 161 kts 124°
2026-04-27 12:41 -7.42712 -37.27646 3575 ft 158 kts 124°
2026-04-27 12:42 -7.43303 -37.26707 3558 ft 158 kts 124°
2026-04-27 12:42 -7.43892 -37.25785 3565 ft 156 kts 123°
2026-04-27 12:42 -7.44482 -37.24862 3567 ft 158 kts 124°
2026-04-27 12:42 -7.45089 -37.23917 3569 ft 162 kts 124°
2026-04-27 12:43 -7.45699 -37.22953 3562 ft 162 kts 124°
2026-04-27 12:43 -7.46301 -37.22011 3559 ft 157 kts 124°
2026-04-27 12:43 -7.46886 -37.21087 3565 ft 158 kts 124°
2026-04-27 12:43 -7.47490 -37.20147 3574 ft 162 kts 124°
2026-04-27 12:44 -7.48093 -37.19201 3560 ft 163 kts 123°
2026-04-27 12:44 -7.48714 -37.18245 3552 ft 160 kts 124°
2026-04-27 12:44 -7.49309 -37.17324 3559 ft 155 kts 124°
2026-04-27 12:44 -7.49895 -37.16394 3565 ft 159 kts 123°
2026-04-27 12:45 -7.50485 -37.15444 3546 ft 160 kts 124°
2026-04-27 12:45 -7.51065 -37.14517 3558 ft 156 kts 124°
2026-04-27 12:45 -7.51643 -37.13594 3566 ft 158 kts 123°
2026-04-27 12:45 -7.52240 -37.12651 3570 ft 162 kts 124°
2026-04-27 12:46 -7.52855 -37.11682 3574 ft 165 kts 124°
2026-04-27 12:46 -7.53462 -37.10720 3577 ft 161 kts 123°
2026-04-27 12:46 -7.54080 -37.09758 3572 ft 164 kts 124°
2026-04-27 12:46 -7.54699 -37.08799 3556 ft 165 kts 123°
2026-04-27 12:47 -7.55313 -37.07832 3565 ft 164 kts 124°
2026-04-27 12:47 -7.55911 -37.06863 3568 ft 164 kts 122°
2026-04-27 12:47 -7.56532 -37.05890 3562 ft 165 kts 125°
2026-04-27 12:47 -7.57144 -37.04935 3558 ft 159 kts 123°
2026-04-27 12:48 -7.57738 -37.04001 3560 ft 158 kts 123°
2026-04-27 12:48 -7.58346 -37.03081 3561 ft 157 kts 124°
2026-04-27 12:48 -7.58906 -37.02150 3563 ft 155 kts 118°
2026-04-27 12:48 -7.59408 -37.01150 3548 ft 162 kts 118°
2026-04-27 12:49 -7.59903 -37.00136 3552 ft 162 kts 117°
2026-04-27 12:49 -7.60403 -36.99123 3542 ft 159 kts 117°
2026-04-27 12:49 -7.60900 -36.98125 3538 ft 159 kts 118°
2026-04-27 12:49 -7.61377 -36.97140 3539 ft 155 kts 117°
2026-04-27 12:50 -7.61857 -36.96161 3557 ft 160 kts 117°
2026-04-27 12:50 -7.62358 -36.95163 3551 ft 159 kts 118°
2026-04-27 12:50 -7.62854 -36.94172 3553 ft 160 kts 118°
2026-04-27 12:50 -7.63347 -36.93159 3542 ft 161 kts 117°
2026-04-27 12:51 -7.63850 -36.92146 3534 ft 161 kts 117°
2026-04-27 12:51 -7.64346 -36.91144 3551 ft 158 kts 118°
2026-04-27 12:51 -7.64843 -36.90134 3546 ft 162 kts 117°
2026-04-27 12:51 -7.65341 -36.89121 3539 ft 159 kts 117°
2026-04-27 12:52 -7.65835 -36.88139 3547 ft 156 kts 117°
2026-04-27 12:52 -7.66325 -36.87151 3527 ft 159 kts 118°
2026-04-27 12:52 -7.66799 -36.86172 3524 ft 155 kts 117°
2026-04-27 12:52 -7.67259 -36.85182 3527 ft 158 kts 117°
2026-04-27 12:53 -7.68222 -36.83195 3527 ft 157 kts 117°
2026-04-27 12:53 -7.68701 -36.82205 3516 ft 155 kts 117°
2026-04-27 12:53 -7.69168 -36.81229 3522 ft 156 kts 117°
2026-04-27 12:54 -7.69638 -36.80253 3530 ft 153 kts 117°
2026-04-27 12:54 -7.70105 -36.79275 3527 ft 157 kts 117°
2026-04-27 12:54 -7.70568 -36.78285 3527 ft 156 kts 117°
2026-04-27 12:54 -7.71044 -36.77293 3526 ft 156 kts 118°
2026-04-27 12:55 -7.71506 -36.76313 3520 ft 154 kts 118°
2026-04-27 12:55 -7.71966 -36.75320 3524 ft 158 kts 116°
2026-04-27 12:55 -7.72432 -36.74335 3522 ft 156 kts 117°
2026-04-27 12:55 -7.72886 -36.73361 3517 ft 152 kts 118°
2026-04-27 12:56 -7.73333 -36.72386 3518 ft 154 kts 116°
2026-04-27 12:56 -7.73789 -36.71410 3519 ft 155 kts 118°
2026-04-27 12:56 -7.74245 -36.70427 3518 ft 154 kts 117°
2026-04-27 12:56 -7.74706 -36.69449 3526 ft 156 kts 117°
2026-04-27 12:57 -7.75176 -36.68460 3514 ft 156 kts 117°
2026-04-27 12:57 -7.75647 -36.67477 3526 ft 157 kts 117°
2026-04-27 12:57 -7.76107 -36.66466 3506 ft 159 kts 117°
2026-04-27 12:57 -7.76568 -36.65478 3516 ft 157 kts 117°
2026-04-27 12:58 -7.77044 -36.64491 3523 ft 156 kts 117°
2026-04-27 12:58 -7.77520 -36.63503 3527 ft 157 kts 117°
2026-04-27 12:58 -7.77991 -36.62499 3536 ft 160 kts 117°
2026-04-27 12:58 -7.78463 -36.61498 3515 ft 155 kts 117°
2026-04-27 12:59 -7.78922 -36.60525 3526 ft 155 kts 117°
2026-04-27 12:59 -7.79388 -36.59525 3520 ft 158 kts 117°
2026-04-27 12:59 -7.79767 -36.58484 3505 ft 156 kts 107°
2026-04-27 12:59 -7.80040 -36.57442 3517 ft 155 kts 107°
2026-04-27 13:00 -7.80319 -36.56384 3509 ft 157 kts 107°
2026-04-27 13:00 -7.80583 -36.55319 3509 ft 156 kts 107°
2026-04-27 13:00 -7.80848 -36.54258 3507 ft 156 kts 107°
2026-04-27 13:00 -7.81109 -36.53210 3510 ft 155 kts 107°
2026-04-27 13:01 -7.81277 -36.52128 3513 ft 156 kts 99°
2026-04-27 13:01 -7.81413 -36.51036 3511 ft 156 kts 100°
2026-04-27 13:01 -7.81544 -36.49934 3510 ft 159 kts 99°
2026-04-27 13:01 -7.81685 -36.48836 3516 ft 158 kts 100°
2026-04-27 13:02 -7.81822 -36.47747 3513 ft 155 kts 99°
2026-04-27 13:02 -7.81944 -36.46675 3509 ft 154 kts 100°
2026-04-27 13:02 -7.82062 -36.45600 3516 ft 155 kts 100°
2026-04-27 13:02 -7.82185 -36.44514 3507 ft 155 kts 100°
2026-04-27 13:03 -7.82313 -36.43427 3514 ft 157 kts 100°
2026-04-27 13:03 -7.82442 -36.42320 3507 ft 159 kts 100°
2026-04-27 13:03 -7.82564 -36.41217 3516 ft 158 kts 100°
2026-04-27 13:03 -7.82699 -36.40128 3508 ft 157 kts 99°
2026-04-27 13:04 -7.82845 -36.39050 3515 ft 154 kts 100°
2026-04-27 13:04 -7.82980 -36.37971 3506 ft 154 kts 99°
2026-04-27 13:04 -7.83096 -36.36892 3525 ft 156 kts 99°
2026-04-27 13:04 -7.83232 -36.35785 3511 ft 161 kts 100°
2026-04-27 13:05 -7.83377 -36.34667 3516 ft 161 kts 101°
2026-04-27 13:05 -7.83507 -36.33560 3509 ft 155 kts 99°
2026-04-27 13:05 -7.83636 -36.32475 3513 ft 156 kts 99°
2026-04-27 13:05 -7.83758 -36.31381 3508 ft 157 kts 100°
2026-04-27 13:06 -7.83871 -36.30304 3500 ft 151 kts 98°
2026-04-27 13:06 -7.84010 -36.29241 3504 ft 156 kts 100°
2026-04-27 13:06 -7.84133 -36.28152 3505 ft 156 kts 99°
2026-04-27 13:06 -7.84236 -36.27069 3495 ft 154 kts 99°
2026-04-27 13:07 -7.84370 -36.25979 3495 ft 155 kts 100°
2026-04-27 13:07 -7.84507 -36.24932 3494 ft 150 kts 99°
2026-04-27 13:07 -7.84627 -36.23857 3507 ft 157 kts 100°
2026-04-27 13:07 -7.84734 -36.22759 3494 ft 156 kts 99°
2026-04-27 13:08 -7.84846 -36.21692 3493 ft 151 kts 99°
2026-04-27 13:08 -7.84957 -36.20645 3492 ft 150 kts 100°
2026-04-27 13:08 -7.85060 -36.19591 3518 ft 156 kts 100°
2026-04-27 13:08 -7.85168 -36.18467 3508 ft 163 kts 99°
2026-04-27 13:09 -7.85289 -36.17350 3511 ft 158 kts 100°
2026-04-27 13:09 -7.85403 -36.16250 3489 ft 155 kts 99°
2026-04-27 13:09 -7.85514 -36.15178 3511 ft 155 kts 98°
2026-04-27 13:09 -7.85625 -36.14099 3510 ft 158 kts 100°
2026-04-27 13:10 -7.85732 -36.12982 3505 ft 160 kts 99°
2026-04-27 13:10 -7.85845 -36.11874 3507 ft 158 kts 99°
2026-04-27 13:10 -7.85959 -36.10777 3497 ft 155 kts 99°
2026-04-27 13:10 -7.86048 -36.09686 3498 ft 155 kts 99°
2026-04-27 13:11 -7.86148 -36.08598 3501 ft 156 kts 99°
2026-04-27 13:11 -7.86263 -36.07509 3501 ft 157 kts 99°
2026-04-27 13:11 -7.86365 -36.06416 3501 ft 157 kts 99°
2026-04-27 13:11 -7.86468 -36.05321 3497 ft 157 kts 99°
2026-04-27 13:12 -7.86534 -36.04596 3506 ft 158 kts 99°
2026-04-27 13:12 -7.86627 -36.03492 3503 ft 158 kts 99°
2026-04-27 13:12 -7.86724 -36.02375 3490 ft 159 kts 99°
2026-04-27 13:12 -7.86833 -36.01284 3495 ft 156 kts 99°
2026-04-27 13:13 -7.86936 -36.00193 3495 ft 156 kts 98°
2026-04-27 13:13 -7.87029 -35.99118 3494 ft 155 kts 99°
2026-04-27 13:13 -7.87102 -35.98039 3491 ft 153 kts 98°
2026-04-27 13:13 -7.87185 -35.96966 3489 ft 154 kts 98°
2026-04-27 13:14 -7.87279 -35.95888 3489 ft 154 kts 100°
2026-04-27 13:14 -7.87357 -35.94824 3493 ft 152 kts 99°
2026-04-27 13:14 -7.87454 -35.93752 3493 ft 154 kts 99°
2026-04-27 13:14 -7.87554 -35.92678 3491 ft 153 kts 98°
2026-04-27 13:15 -7.87667 -35.91606 3500 ft 155 kts 99°
2026-04-27 13:15 -7.87784 -35.90533 3489 ft 152 kts 100°
2026-04-27 13:15 -7.87876 -35.89461 3490 ft 153 kts 99°
2026-04-27 13:15 -7.87957 -35.88386 3485 ft 154 kts 98°
2026-04-27 13:16 -7.88065 -35.87311 3489 ft 154 kts 100°
2026-04-27 13:16 -7.88173 -35.86242 3491 ft 156 kts 99°
2026-04-27 13:16 -7.88282 -35.85159 3487 ft 155 kts 99°
2026-04-27 13:16 -7.88382 -35.84076 3489 ft 156 kts 98°
2026-04-27 13:17 -7.88488 -35.82985 3494 ft 156 kts 99°
2026-04-27 13:17 -7.88591 -35.81895 3486 ft 154 kts 99°
2026-04-27 13:17 -7.88698 -35.80820 3487 ft 154 kts 99°
2026-04-27 13:17 -7.88795 -35.79747 3485 ft 153 kts 99°
2026-04-27 13:18 -7.88892 -35.78672 3483 ft 153 kts 98°
2026-04-27 13:18 -7.89008 -35.77609 3478 ft 152 kts 99°
2026-04-27 13:18 -7.89106 -35.76557 3485 ft 150 kts 99°
2026-04-27 13:18 -7.89166 -35.75503 3468 ft 151 kts 93°
2026-04-27 13:19 -7.89046 -35.74457 3480 ft 155 kts 84°
2026-04-27 13:19 -7.88793 -35.73392 3472 ft 156 kts 80°
2026-04-27 13:19 -7.88513 -35.72330 3480 ft 156 kts 80°
2026-04-27 13:19 -7.88234 -35.71271 3473 ft 156 kts 80°
2026-04-27 13:20 -7.87950 -35.70201 3473 ft 159 kts 80°
2026-04-27 13:20 -7.87667 -35.69119 3474 ft 160 kts 80°
2026-04-27 13:20 -7.87373 -35.68045 3476 ft 157 kts 80°
2026-04-27 13:20 -7.87067 -35.66979 3477 ft 159 kts 79°
2026-04-27 13:21 -7.86774 -35.65907 3485 ft 160 kts 79°
2026-04-27 13:21 -7.86489 -35.64820 3474 ft 159 kts 81°
2026-04-27 13:21 -7.86189 -35.63767 3472 ft 157 kts 80°
2026-04-27 13:21 -7.85887 -35.62704 3472 ft 158 kts 80°
2026-04-27 13:22 -7.85587 -35.61634 3473 ft 158 kts 80°
2026-04-27 13:22 -7.85277 -35.60574 3476 ft 157 kts 79°
2026-04-27 13:22 -7.84993 -35.59510 3477 ft 158 kts 80°
2026-04-27 13:22 -7.84696 -35.58439 3478 ft 159 kts 79°
2026-04-27 13:23 -7.84386 -35.57382 3469 ft 155 kts 78°
2026-04-27 13:23 -7.84092 -35.56323 3482 ft 159 kts 79°
2026-04-27 13:23 -7.83801 -35.55244 3471 ft 157 kts 79°
2026-04-27 13:23 -7.83493 -35.54199 3476 ft 155 kts 80°
2026-04-27 13:24 -7.83196 -35.53137 3474 ft 159 kts 79°
2026-04-27 13:24 -7.82907 -35.52069 3471 ft 159 kts 79°
2026-04-27 13:24 -7.82618 -35.50998 3468 ft 156 kts 80°
2026-04-27 13:24 -7.82322 -35.49953 3467 ft 154 kts 79°
2026-04-27 13:25 -7.82032 -35.48915 3472 ft 154 kts 79°
2026-04-27 13:25 -7.81759 -35.47858 3480 ft 157 kts 79°
2026-04-27 13:25 -7.81472 -35.46773 3480 ft 163 kts 79°
2026-04-27 13:25 -7.81170 -35.45667 3477 ft 164 kts 79°
2026-04-27 13:26 -7.80869 -35.44532 3490 ft 172 kts 80°
2026-04-27 13:26 -7.80545 -35.43365 3486 ft 172 kts 79°
2026-04-27 13:26 -7.80229 -35.42228 3476 ft 165 kts 79°
2026-04-27 13:26 -7.79925 -35.41121 3470 ft 162 kts 80°
2026-04-27 13:27 -7.79622 -35.40041 3470 ft 158 kts 79°
2026-04-27 13:27 -7.79320 -35.38969 3469 ft 160 kts 79°
2026-04-27 13:27 -7.79029 -35.37885 3464 ft 160 kts 80°
2026-04-27 13:27 -7.78730 -35.36820 3465 ft 156 kts 79°
2026-04-27 13:28 -7.78431 -35.35766 3463 ft 157 kts 79°
2026-04-27 13:28 -7.78132 -35.34700 3465 ft 159 kts 79°
2026-04-27 13:28 -7.77827 -35.33631 3467 ft 159 kts 80°
2026-04-27 13:28 -7.77514 -35.32583 3460 ft 157 kts 79°
2026-04-27 13:29 -7.77192 -35.31532 3464 ft 158 kts 78°
2026-04-27 13:29 -7.76896 -35.30449 3468 ft 162 kts 79°
2026-04-27 13:29 -7.76586 -35.29360 3462 ft 160 kts 79°
2026-04-27 13:29 -7.76269 -35.28290 3469 ft 159 kts 79°
2026-04-27 13:30 -7.75958 -35.27219 3465 ft 159 kts 79°
2026-04-27 13:30 -7.75652 -35.26154 3465 ft 157 kts 79°
2026-04-27 13:30 -7.75346 -35.25095 3463 ft 155 kts 79°
2026-04-27 13:30 -7.75122 -35.24027 3349 ft 159 kts 85°
2026-04-27 13:31 -7.74925 -35.22907 3233 ft 164 kts 85°
2026-04-27 13:31 -7.74750 -35.21775 3096 ft 162 kts 92°
2026-04-27 13:31 -7.74904 -35.20630 2791 ft 170 kts 106°
2026-04-27 13:31 -7.75144 -35.19416 2502 ft 179 kts 105°
2026-04-27 13:32 -7.75366 -35.18181 2265 ft 179 kts 103°
2026-04-27 13:32 -7.75577 -35.16975 2145 ft 177 kts 104°
2026-04-27 13:32 -7.75806 -35.15754 2009 ft 176 kts 106°
2026-04-27 13:32 -7.76040 -35.14565 1881 ft 169 kts 107°
2026-04-27 13:33 -7.76362 -35.13448 1611 ft 165 kts 112°
2026-04-27 13:33 -7.76807 -35.12394 1502 ft 159 kts 117°
2026-04-27 13:33 -7.77231 -35.11401 1493 ft 151 kts 116°
2026-04-27 13:33 -7.77625 -35.10409 1492 ft 155 kts 112°
2026-04-27 13:34 -7.77530 -35.09307 1455 ft 164 kts 75°
2026-04-27 13:34 -7.77136 -35.08233 1431 ft 162 kts 75°
2026-04-27 13:34 -7.76746 -35.07176 1447 ft 161 kts 75°
2026-04-27 13:34 -7.76366 -35.06105 1458 ft 166 kts 75°
2026-04-27 13:35 -7.75963 -35.04994 1458 ft 169 kts 76°
2026-04-27 13:35 -7.75541 -35.03891 1462 ft 168 kts 74°
2026-04-27 13:35 -7.75142 -35.02791 1455 ft 169 kts 76°
2026-04-27 13:35 -7.74748 -35.01663 1456 ft 168 kts 75°
2026-04-27 13:36 -7.74355 -35.00578 1446 ft 165 kts 75°
2026-04-27 13:36 -7.73961 -34.99497 1444 ft 164 kts 75°
2026-04-27 13:36 -7.73589 -34.98402 1449 ft 162 kts 82°
2026-04-27 13:36 -7.73603 -34.97301 1426 ft 155 kts 105°
2026-04-27 13:37 -7.73841 -34.96253 1422 ft 154 kts 107°
2026-04-27 13:37 -7.74083 -34.95212 1423 ft 151 kts 110°
2026-04-27 13:37 -7.74437 -34.94211 1423 ft 151 kts 114°
2026-04-27 13:37 -7.74869 -34.93240 1440 ft 154 kts 119°
2026-04-27 13:38 -7.75433 -34.92290 1437 ft 161 kts 125°
2026-04-27 13:38 -7.76036 -34.91336 1429 ft 160 kts 128°
2026-04-27 13:38 -7.76908 -34.90675 1380 ft 160 kts 150°
2026-04-27 13:38 -7.77966 -34.90245 1274 ft 166 kts 161°
2026-04-27 13:39 -7.79056 -34.89901 1170 ft 163 kts 167°
2026-04-27 13:39 -7.80176 -34.89752 1070 ft 162 kts 172°
2026-04-27 13:39 -7.81285 -34.89622 963 ft 159 kts 173°
2026-04-27 13:39 -7.82374 -34.89630 652 ft 144 kts 182°
2026-04-27 13:40 -7.83203 -34.89586 300 ft 112 kts 172°
2026-04-27 13:40 -7.83901 -34.89383 64 ft 88 kts 157°
2026-04-27 13:40 -7.84362 -34.89211 38 ft 54 kts 159°
2026-04-27 13:40 -7.84474 -34.89223 39 ft 0 kts 266°
2026-04-27 13:41 -7.84475 -34.89231 39 ft 5 kts 254°
2026-04-27 13:41 -7.84470 -34.89255 38 ft 0 kts 13°